Total_Precipitation_Accumulation
0.05 0.10 0.29 0.37 0.38 0.40 0.44 0.46 0.47 0.45 0.45 0.48 0.53 0.57 0.57 0.59 0.57 0.56 0.56 0.58 0.62 0.70 0.76 0.87 0.92 0.93 0.84 0.72 0.67 0.59 0.51 0.45 0.42 0.40 0.44 0.51 0.55 0.51 0.44 0.38 0.30 0.41 0.59
0.07 0.12 0.26 0.32 0.35 0.37 0.40 0.42 0.45 0.45 0.45 0.48 0.49 0.55 0.59 0.60 0.61 0.62 0.63 0.62 0.66 0.73 0.76 0.86 0.88 0.87 0.81 0.69 0.65 0.55 0.46 0.40 0.33 0.29 0.28 0.32 0.47 0.52 0.45 0.41 0.40 0.60 0.67
0.06 0.11 0.23 0.29 0.33 0.36 0.38 0.40 0.40 0.42 0.44 0.48 0.50 0.55 0.60 0.61 0.62 0.65 0.68 0.69 0.70 0.76 0.79 0.82 0.78 0.76 0.75 0.70 0.68 0.61 0.47 0.42 0.33 0.24 0.20 0.22 0.38 0.54 0.54 0.48 0.49 0.68 0.71
0.04 0.09 0.17 0.28 0.33 0.38 0.40 0.40 0.40 0.42 0.45 0.48 0.52 0.57 0.61 0.62 0.63 0.67 0.69 0.70 0.70 0.72 0.80 0.81 0.78 0.77 0.75 0.75 0.68 0.57 0.47 0.41 0.31 0.21 0.13 0.17 0.40 0.64 0.61 0.55 0.52 0.64 0.70
0.04 0.08 0.17 0.29 0.36 0.42 0.44 0.44 0.44 0.47 0.49 0.53 0.55 0.60 0.65 0.68 0.69 0.69 0.68 0.65 0.63 0.62 0.66 0.68 0.73 0.79 0.78 0.75 0.69 0.60 0.51 0.41 0.28 0.17 0.12 0.21 0.45 0.68 0.62 0.59 0.59 0.64 0.67
0.06 0.10 0.19 0.31 0.40 0.46 0.49 0.48 0.48 0.51 0.54 0.58 0.62 0.66 0.72 0.79 0.79 0.76 0.72 0.71 0.63 0.59 0.60 0.63 0.68 0.78 0.78 0.72 0.68 0.68 0.69 0.53 0.29 0.15 0.14 0.21 0.34 0.57 0.67 0.75 0.77 0.71 0.67
0.10 0.14 0.20 0.33 0.45 0.51 0.54 0.54 0.54 0.58 0.60 0.63 0.65 0.69 0.75 0.81 0.84 0.79 0.76 0.72 0.70 0.66 0.62 0.62 0.66 0.75 0.74 0.69 0.67 0.68 0.72 0.54 0.30 0.24 0.18 0.17 0.29 0.54 0.81 0.93 0.97 0.85 0.74
0.10 0.15 0.23 0.39 0.48 0.53 0.58 0.61 0.62 0.66 0.69 0.71 0.72 0.78 0.81 0.84 0.86 0.86 0.80 0.73 0.72 0.69 0.66 0.64 0.67 0.70 0.68 0.64 0.62 0.62 0.60 0.41 0.34 0.37 0.31 0.30 0.41 0.69 0.89 1.08 1.05 0.89 0.81
0.17 0.23 0.30 0.43 0.53 0.60 0.68 0.71 0.72 0.76 0.78 0.78 0.80 0.84 0.88 0.88 0.89 0.88 0.84 0.75 0.74 0.71 0.70 0.68 0.66 0.62 0.59 0.57 0.57 0.57 0.50 0.36 0.31 0.46 0.44 0.55 0.52 0.74 0.87 1.01 1.10 1.00 0.88
0.24 0.29 0.36 0.45 0.53 0.62 0.73 0.79 0.84 0.86 0.89 0.95 0.96 0.87 0.87 0.96 1.01 0.98 0.88 0.82 0.80 0.77 0.74 0.70 0.66 0.57 0.52 0.53 0.51 0.47 0.40 0.31 0.24 0.37 0.62 0.61 0.54 0.84 0.99 1.00 1.07 1.05 1.00
0.31 0.36 0.44 0.52 0.58 0.64 0.72 0.79 0.94 1.04 1.07 1.10 1.13 1.01 1.00 1.02 1.01 0.97 0.89 0.86 0.82 0.81 0.76 0.74 0.69 0.66 0.61 0.54 0.52 0.45 0.36 0.26 0.23 0.33 0.44 0.47 0.60 0.86 1.11 1.16 1.14 1.08 1.00
0.31 0.37 0.47 0.59 0.63 0.72 0.79 0.87 0.99 1.07 1.13 1.12 0.98 1.01 1.06 0.97 0.94 0.90 0.93 0.97 0.91 0.89 0.86 0.81 0.73 0.70 0.67 0.55 0.53 0.49 0.33 0.25 0.25 0.22 0.25 0.32 0.52 0.82 1.06 1.21 1.29 1.24 1.11
0.30 0.36 0.48 0.64 0.75 0.81 0.83 0.86 0.92 0.99 1.04 1.08 0.97 0.88 0.92 0.96 0.96 0.97 0.94 1.01 1.01 0.98 1.00 0.95 0.88 0.71 0.62 0.58 0.59 0.51 0.37 0.31 0.28 0.23 0.23 0.29 0.40 0.62 0.89 1.12 1.27 1.36 1.33
0.36 0.42 0.53 0.66 0.78 0.85 0.88 0.89 0.88 0.92 0.95 0.96 0.97 0.97 0.92 0.92 0.85 0.82 0.83 0.83 0.86 0.84 0.86 0.90 0.83 0.73 0.61 0.57 0.57 0.55 0.48 0.40 0.32 0.30 0.25 0.29 0.35 0.43 0.61 0.86 1.07 1.30 1.43
0.40 0.47 0.59 0.73 0.80 0.89 0.97 0.99 0.96 0.93 0.87 0.91 0.96 1.06 0.99 0.86 0.79 0.79 0.77 0.76 0.78 0.77 0.75 0.75 0.71 0.66 0.59 0.53 0.52 0.52 0.49 0.42 0.35 0.34 0.29 0.32 0.33 0.37 0.49 0.69 0.89 1.18 1.47
0.43 0.51 0.64 0.77 0.87 0.94 0.96 0.97 0.96 0.95 0.93 0.98 0.99 0.99 1.06 1.00 0.85 0.82 0.84 0.77 0.74 0.75 0.73 0.72 0.68 0.65 0.62 0.53 0.47 0.43 0.44 0.44 0.41 0.40 0.37 0.35 0.34 0.34 0.42 0.59 0.78 1.01 1.35
0.45 0.56 0.69 0.77 0.92 1.02 0.96 1.00 1.01 0.98 0.99 1.03 1.01 1.01 1.09 1.09 1.05 0.93 0.88 0.84 0.77 0.76 0.78 0.78 0.76 0.67 0.64 0.56 0.48 0.43 0.39 0.38 0.37 0.40 0.42 0.39 0.39 0.36 0.38 0.49 0.64 0.85 1.09
0.51 0.56 0.69 0.80 0.89 1.00 1.01 1.00 1.05 1.05 1.03 1.05 1.11 1.12 1.11 1.17 1.16 1.12 1.00 0.90 0.82 0.82 0.83 0.84 0.83 0.78 0.68 0.62 0.56 0.49 0.42 0.38 0.36 0.35 0.37 0.38 0.41 0.41 0.41 0.45 0.50 0.66 0.89
0.52 0.58 0.70 0.82 0.87 0.94 1.06 1.05 1.06 1.11 1.13 1.14 1.19 1.23 1.16 1.20 1.24 1.23 1.19 1.09 0.97 0.92 0.87 0.83 0.80 0.79 0.74 0.69 0.65 0.60 0.52 0.45 0.40 0.39 0.35 0.32 0.34 0.40 0.43 0.45 0.49 0.54 0.70
0.60 0.63 0.71 0.82 0.92 0.97 1.15 1.23 1.17 1.19 1.19 1.21 1.22 1.19 1.21 1.26 1.27 1.23 1.23 1.23 1.15 1.07 0.98 0.88 0.82 0.75 0.70 0.68 0.71 0.71 0.62 0.53 0.48 0.44 0.40 0.35 0.32 0.33 0.39 0.44 0.49 0.51 0.58
0.68 0.68 0.74 0.80 0.93 1.05 1.16 1.30 1.22 1.16 1.18 1.19 1.16 1.15 1.13 1.20 1.27 1.29 1.21 1.18 1.17 1.11 1.03 0.95 0.90 0.87 0.81 0.74 0.79 0.87 0.83 0.66 0.55 0.50 0.46 0.44 0.39 0.36 0.37 0.41 0.47 0.53 0.56
0.71 0.70 0.75 0.84 0.93 0.98 1.07 1.18 1.24 1.18 1.20 1.26 1.22 1.20 1.16 1.15 1.20 1.29 1.31 1.19 1.12 1.07 1.04 0.98 0.94 0.92 0.92 0.85 0.82 0.88 0.92 0.90 0.70 0.51 0.45 0.45 0.43 0.42 0.41 0.40 0.42 0.49 0.57
0.69 0.71 0.74 0.83 0.93 0.98 1.11 1.24 1.35 1.47 1.43 1.42 1.41 1.30 1.19 1.15 1.14 1.16 1.27 1.27 1.17 1.09 1.03 0.96 0.91 0.87 0.88 0.84 0.76 0.87 0.95 0.84 0.67 0.55 0.46 0.40 0.39 0.41 0.41 0.41 0.42 0.43 0.50
0.60 0.71 0.78 0.87 0.94 0.97 1.15 1.30 1.28 1.39 1.40 1.28 1.20 1.25 1.22 1.16 1.13 1.10 1.11 1.19 1.23 1.16 1.04 0.94 0.90 0.89 0.90 0.90 0.80 0.72 0.73 0.71 0.73 0.63 0.52 0.47 0.43 0.41 0.41 0.41 0.41 0.41 0.44
0.53 0.66 0.77 0.90 0.99 1.01 1.08 1.27 1.31 1.25 1.24 1.26 1.25 1.23 1.27 1.27 1.20 1.11 1.09 1.10 1.13 1.12 1.04 0.98 0.93 0.90 0.91 0.90 0.86 0.76 0.69 0.60 0.59 0.68 0.58 0.50 0.53 0.49 0.46 0.46 0.46 0.45 0.44
0.53 0.62 0.72 0.85 0.96 1.01 1.02 1.14 1.29 1.24 1.19 1.20 1.26 1.29 1.28 1.32 1.29 1.17 1.07 1.06 1.03 0.99 0.97 0.94 0.91 0.84 0.81 0.81 0.78 0.76 0.77 0.75 0.64 0.64 0.62 0.48 0.47 0.49 0.50 0.53 0.56 0.53 0.51